User: anonymous   Login
Location: *
(58.4167°N, 22.5000°E)
Time: 20:59:21
(UTC+00:00)
Language:

Cosmos 1626 Rocket - Orbit

View from above orbital plane
View from above orbital plane
View from above satellite
View from above satellite

Ground track
Ground track

The orbit data is extracted from the following two-line orbital elements,

1 15495U 85009B   19325.28975228  .00000066  00000-0  51023-5 0  9997
2 15495  82.5252  76.4534 0018603 284.4040  75.5110 14.83854085881517
Epoch (UTC): 21 November 2019 06:57:14
Eccentricity: 0.0018603
inclination: 82.5252°
perigee height: 604 km
apogee height: 630 km
right ascension of ascending node: 76.4534°
argument of perigee: 284.4040°
revolutions per day: 14.83854085
mean anomaly at epoch: 75.5110°
orbit number at epoch: 88151

The dashed part of the orbit path shows where the satellite is in the earth's shadow,  

DLR